sat.trackr.live / text

‹ back to catalog

STARLINK-33704

NORAD 63650 · 2025-083S

PAYLOAD ACTIVE UNKNOWN

§ Identity

Operator
Country
US
Launch date
2025-04-25
Launch site
AFETR
Launch vehicle
Mass (kg)
RCS (m²)

Purposes: comms

External: N2YO · Heavens-Above · Gunter

§ Orbital elements

Epoch: 2026-05-25T02:26:59.990208Z

Period
94.27 min
Inclination
42.9964°
Eccentricity
0.0001287
Mean motion
15.27582797 rev/d
Perigee alt
482.2 km
Apogee alt
483.9 km
Semi-major
6,861.2 km
B*
5.1028e-4
RAAN
293.6268°
Arg perigee
299.2315°
Mean anomaly
60.8408°
Rev number
6,175

§ Raw data

STARLINK-337041 63650U 25083S   26145.10208322  .00013807  00000+0  51028-3 0  99912 63650  42.9964 293.6268 0001287 299.2315  60.8408 15.27582797 61759

JSON: /api/v1/satellites/63650 · /tle

For live sub-satellite position, see the globe view (requires WebGL).

§ Visibility from observer

Set your observer location to see the next 7 days of passes ≥ 10°. The values pass through the URL so the page stays shareable.

No JS? Fill the form by hand. The geolocation button needs JavaScript.